Theta_e
320 320 321 321 321 322 322 323 323 323 324 325 325 325 325 326 324 312 305 312 317 330 322 310 308 307 305 304 303 300 290 288 290 292 294 295 294 296 295 294 296 299 296 296 298
320 320 320 320 320 321 321 322 322 322 323 324 324 325 325 325 312 307 319 333 332 331 310 305 302 303 300 301 301 297 290 291 295 297 293 295 295 295 293 293 293 295 295 296 297
320 319 319 319 319 320 321 321 321 321 322 323 324 324 324 321 305 306 330 335 332 327 310 307 305 303 298 299 299 297 292 296 298 298 297 296 294 296 294 293 295 296 297 296 294
320 319 318 318 319 319 320 320 320 320 321 322 323 323 323 314 290 308 328 331 330 313 308 304 302 299 297 296 300 294 298 298 300 300 297 295 295 294 295 300 299 298 296 295 294
320 319 318 318 318 318 319 319 319 320 320 321 322 322 312 301 302 314 325 325 315 310 304 303 300 299 295 297 297 296 297 299 300 299 297 297 297 296 296 298 298 298 297 295 296
319 318 318 317 317 318 318 318 319 320 320 320 321 320 303 292 306 312 310 311 308 304 302 302 301 301 297 297 296 295 297 297 298 298 298 297 295 296 300 297 298 298 298 295 296
320 318 318 318 318 317 318 318 318 319 319 320 320 318 305 298 307 307 307 305 304 303 301 301 302 300 297 295 298 296 294 294 296 296 295 296 293 293 301 296 297 296 296 296 296
320 319 318 318 318 319 319 319 319 319 319 320 321 311 295 307 304 304 304 302 303 303 302 302 302 300 297 298 295 291 291 287 293 294 295 295 290 296 298 295 297 296 295 295 297
319 318 318 318 318 318 319 319 318 319 319 320 309 302 296 311 303 305 304 301 301 302 301 305 301 296 295 291 287 286 284 285 290 295 294 292 290 296 295 294 295 296 295 296 297
319 319 318 318 318 318 319 319 317 315 316 317 312 297 300 299 304 303 301 303 300 300 299 299 295 291 290 288 283 284 283 286 287 291 291 289 291 296 297 293 293 294 293 292 294
319 319 318 318 319 319 314 306 297 295 301 294 296 296 299 303 304 302 302 301 301 296 291 293 289 287 292 291 292 286 285 285 288 293 290 290 292 295 298 295 292 294 297 298 299
320 319 318 318 318 318 307 302 299 300 293 299 299 299 301 302 297 301 303 297 296 291 292 289 287 293 294 291 291 289 288 288 291 293 289 290 290 294 294 297 298 297 297 297 299
319 318 318 317 317 308 301 300 305 303 292 295 297 295 296 301 296 297 300 296 292 290 291 290 291 295 292 290 289 289 287 288 288 289 288 286 287 287 292 294 296 295 297 299 300
319 318 317 316 309 304 300 303 304 302 284 289 293 295 298 298 292 296 297 296 292 290 290 289 294 293 290 289 291 288 291 290 287 284 283 286 282 285 289 291 293 294 295 296 298
318 318 317 315 305 303 305 306 303 296 278 291 292 300 298 292 291 292 293 294 289 289 289 288 288 289 288 291 291 290 289 288 285 283 282 282 281 284 288 287 291 295 295 296 298
317 317 316 311 306 307 306 303 298 285 278 288 291 291 290 292 291 291 291 292 291 288 288 289 289 289 290 289 290 289 288 286 283 282 279 284 283 284 284 288 289 293 295 296 298
318 317 314 313 305 308 305 302 294 283 291 289 288 290 289 288 289 288 287 286 285 282 281 285 286 287 290 287 287 288 285 278 275 274 278 284 280 288 288 292 291 293 295 296 296
315 317 314 314 309 309 307 299 287 293 289 294 294 289 288 290 290 288 285 283 286 285 281 281 282 287 289 289 286 286 286 282 273 276 282 279 279 286 291 293 293 293 294 292 292
315 315 312 314 309 309 301 290 292 293 297 296 297 292 288 288 290 287 285 284 287 288 285 282 284 287 288 288 290 283 282 288 281 270 273 283 285 290 289 291 291 291 291 291 291
311 311 310 313 311 307 296 293 295 296 298 298 292 294 288 288 290 288 287 288 288 289 291 286 283 288 285 287 286 287 288 281 280 275 273 279 281 285 288 290 289 290 291 291 290
309 303 308 311 309 300 290 293 296 299 299 296 294 294 291 291 293 290 290 290 293 289 291 290 287 286 284 284 285 284 284 284 284 283 280 279 283 287 287 286 288 290 292 290 290
304 295 308 310 296 296 293 295 298 297 299 298 297 295 294 294 293 294 293 295 297 294 291 292 289 284 287 289 287 286 287 288 283 280 280 281 283 295 295 294 295 294 293 291 290
298 297 307 307 291 293 295 295 297 296 296 296 295 297 297 293 290 293 294 299 299 298 294 295 288 283 284 288 289 283 285 287 287 283 283 280 282 295 295 294 296 294 295 292 291
294 290 297 299 299 294 292 293 292 297 296 297 295 296 293 291 294 291 291 295 297 297 299 297 290 286 282 285 288 285 285 285 285 282 283 283 285 290 292 293 295 296 296 291 293
289 287 293 287 291 293 294 293 290 289 295 296 293 293 291 288 289 288 291 291 293 296 296 294 286 288 289 290 290 289 289 289 287 288 284 286 286 290 292 294 296 297 298 295 292
286 286 290 288 289 290 290 288 289 290 291 289 289 291 291 287 287 285 286 286 286 289 288 290 285 288 286 288 287 285 288 289 288 288 288 288 287 295 296 297 296 296 297 297 296
288 289 289 283 282 280 283 285 287 288 290 291 289 285 285 286 287 287 288 288 288 286 285 285 284 283 280 284 283 280 286 287 288 290 289 285 289 289 288 290 294 294 289 289 290
Wind_Speed
15 16 16 16 16 16 16 15 15 14 13 13 12 13 11 9 7 2 6 8 5 13 5 5 1 1 2 2 2 3 4 3 6 3 5 0 3 2 1 1 3 7 5 2 6
14 15 16 16 16 16 16 16 17 16 15 14 14 13 12 10 2 7 7 6 10 13 6 6 4 3 1 2 1 4 4 9 6 2 4 3 6 4 2 5 5 6 2 4 9
12 14 15 16 16 16 16 16 16 16 17 16 15 15 13 6 3 7 4 8 11 10 5 6 3 5 2 3 4 5 7 6 7 5 4 4 3 6 6 9 9 11 10 9 9
9 12 13 15 16 17 17 16 16 16 16 15 16 16 15 1 6 3 7 9 9 5 5 4 4 4 4 5 6 3 9 7 6 4 3 4 2 5 10 20 8 14 5 10 14
5 7 10 13 15 16 18 18 18 16 15 15 15 14 4 0 11 6 7 7 5 6 7 6 6 5 5 4 3 7 6 7 7 8 6 4 11 8 14 15 9 9 8 13 16
7 7 8 12 14 16 18 19 19 18 16 13 11 10 1 5 2 9 9 7 6 6 6 7 8 7 4 5 6 2 5 7 7 10 7 7 8 6 21 5 12 11 16 12 16
8 8 9 11 14 16 18 19 19 19 17 15 9 2 2 16 1 7 9 6 4 6 5 5 5 6 3 4 3 3 8 7 10 6 9 7 9 13 25 2 12 12 12 11 19
9 10 10 12 14 16 18 20 20 19 18 13 6 3 8 1 2 4 3 2 1 2 1 0 2 3 3 4 7 2 1 5 2 7 5 9 15 14 14 7 17 15 12 11 16
9 9 11 12 14 17 20 22 21 16 6 5 4 5 9 1 2 6 6 3 2 3 3 3 4 4 1 3 4 2 7 9 13 11 5 7 12 13 6 9 13 14 12 13 16
8 9 10 13 15 18 21 22 6 2 3 3 2 2 4 6 3 2 3 5 3 4 3 3 3 3 2 4 10 9 6 6 8 4 5 7 17 16 12 8 13 13 12 12 15
7 8 10 12 15 19 12 5 5 1 3 9 8 6 3 3 1 3 3 5 4 4 6 3 5 11 22 15 13 3 6 8 8 11 6 11 17 19 23 11 11 16 19 21 21
7 7 9 11 14 18 3 6 3 3 9 7 11 9 7 4 4 5 7 8 6 8 5 1 11 19 11 5 10 12 18 19 15 15 6 16 23 18 12 19 22 20 21 21 20
8 6 7 11 12 4 4 3 2 2 3 11 6 5 5 8 6 4 10 5 5 6 10 20 11 13 10 8 6 16 15 18 19 6 5 9 19 11 14 14 20 15 20 21 26
9 7 5 10 3 2 1 1 0 1 2 9 5 3 0 5 5 2 1 5 4 12 8 11 10 11 10 9 15 23 13 13 8 4 13 4 27 6 9 13 11 15 17 18 22
9 8 5 1 2 0 3 1 1 1 8 5 2 3 3 4 2 5 1 4 4 4 5 10 5 7 10 23 11 22 5 6 3 4 6 3 7 4 8 8 13 15 15 19 18
7 8 8 2 1 4 1 2 2 5 11 6 1 3 2 3 3 2 3 5 1 3 5 10 2 5 10 4 9 2 4 5 5 1 13 11 10 4 6 8 6 10 15 16 18
8 9 9 5 3 4 1 2 2 8 3 4 0 2 3 3 2 4 4 6 6 3 4 3 7 3 5 4 2 4 5 4 4 1 14 10 7 18 6 11 12 14 16 14 12
7 8 7 3 6 5 2 3 11 1 6 3 1 4 6 5 5 3 4 4 6 2 2 2 19 10 6 11 10 12 12 10 8 10 19 5 12 12 12 12 11 10 13 11 8
7 1 3 4 6 4 3 7 9 8 7 3 6 4 4 3 6 4 7 6 8 15 10 5 18 4 4 4 8 2 6 13 2 2 2 10 15 10 4 9 7 10 13 17 10
2 3 5 11 10 2 4 14 7 5 3 1 6 6 7 4 1 3 4 4 5 11 4 3 8 4 1 2 3 7 4 2 2 6 8 11 9 16 10 6 7 13 14 15 9
2 3 1 13 6 4 11 8 9 7 6 6 6 12 8 5 10 8 8 5 4 3 5 4 5 11 2 7 9 2 5 6 3 4 12 16 16 6 9 1 5 10 10 9 10
3 5 5 10 5 4 13 6 5 6 7 11 6 11 15 13 12 12 8 12 5 2 5 7 6 7 17 11 5 7 16 16 11 11 6 4 9 30 28 19 20 18 10 6 8
3 3 4 4 8 12 5 9 13 11 10 7 10 9 10 13 12 14 15 16 18 15 6 4 4 11 7 11 14 9 10 10 7 3 19 17 15 25 24 22 22 16 17 10 11
3 3 3 4 7 10 15 16 14 7 12 9 12 14 15 18 18 15 20 5 7 16 18 8 14 19 19 17 3 7 9 9 14 15 17 19 24 24 26 28 29 16 16 10 13
2 5 3 5 12 14 14 12 20 19 9 10 13 18 21 18 22 24 15 15 14 16 11 10 23 19 27 26 24 29 30 31 29 30 30 30 29 22 24 28 25 28 25 17 9
2 2 4 4 4 5 14 19 19 20 16 17 14 16 13 12 11 17 8 6 4 7 7 6 14 23 31 30 26 28 33 34 34 34 35 29 30 28 28 29 28 30 28 26 17
2 3 2 4 3 1 6 6 6 2 3 5 4 2 8 6 9 10 10 11 14 12 17 10 9 14 17 8 21 19 25 36 35 29 27 28 26 19 18 22 24 19 20 18 19
Wind_Direction
25 19 16 11 6 3 358 356 352 348 348 344 344 343 338 327 303 196 237 224 185 165 147 122 168 239 70 305 192 94 67 242 247 228 265 190 240 258 336 189 222 208 182 292 117
21 16 9 5 360 356 352 349 346 343 342 342 342 341 340 333 241 236 254 172 145 148 124 150 172 147 330 246 262 111 144 227 218 222 233 239 205 225 203 235 242 273 261 84 135
11 8 5 359 353 348 345 342 340 339 338 338 338 337 335 322 316 242 161 163 160 173 146 162 133 152 225 170 206 188 212 223 263 244 209 230 233 202 198 254 213 214 230 167 174
1 359 355 350 344 340 336 333 331 330 331 333 335 334 325 175 294 203 169 168 166 171 139 167 167 176 213 213 210 219 239 228 262 254 287 250 242 232 197 245 200 226 194 167 192
334 346 342 340 335 331 328 324 321 322 325 327 331 337 341 328 249 152 154 163 151 151 180 181 176 184 209 216 284 220 246 234 250 276 262 291 246 243 262 246 244 241 200 197 204
326 325 320 327 330 323 320 317 315 316 317 315 322 334 175 235 204 157 155 148 194 178 193 172 201 206 230 227 201 245 274 270 265 254 252 210 266 144 266 255 239 238 238 216 211
306 307 307 310 316 318 314 308 306 305 304 302 298 186 213 238 307 164 161 196 191 181 194 214 184 162 180 280 273 313 310 310 249 241 233 175 287 224 247 222 275 250 249 236 222
299 304 304 305 307 309 307 304 301 297 293 283 213 171 239 340 111 146 183 263 218 183 180 3 138 174 179 284 354 311 359 305 309 140 248 141 263 250 252 209 257 263 260 243 244
293 302 304 304 308 310 307 304 303 295 276 155 139 158 259 94 200 223 160 212 118 57 55 85 115 181 38 145 355 270 235 217 304 206 154 181 252 265 233 203 255 263 261 259 266
291 297 301 304 311 311 314 308 281 44 105 196 265 54 273 237 209 178 157 140 127 101 64 123 73 157 8 122 228 219 219 246 240 248 191 230 252 270 271 199 240 261 267 262 258
286 297 302 306 316 317 336 2 7 358 8 194 203 213 228 183 125 181 156 118 107 101 185 219 141 198 226 209 237 204 224 234 251 267 233 232 245 250 265 271 254 257 259 257 253
278 288 300 308 315 320 4 71 167 202 309 258 249 278 262 166 234 221 127 155 153 199 137 235 211 220 229 208 224 240 255 260 268 257 214 266 261 263 255 260 260 258 261 256 256
267 275 300 308 316 31 49 116 282 140 240 288 220 203 234 159 228 216 148 145 172 173 202 230 229 216 221 232 219 230 235 251 255 316 246 291 274 258 254 255 264 252 248 260 257
260 268 289 312 64 352 313 215 348 191 341 272 264 268 169 152 241 133 216 161 192 221 206 244 234 207 204 228 204 260 222 254 260 303 275 128 292 236 251 247 252 255 258 253 262
225 239 212 47 187 306 213 177 142 105 305 266 238 343 345 159 47 10 55 37 216 181 147 243 189 201 211 228 181 253 193 248 226 226 325 200 271 183 212 253 248 251 247 262 263
251 212 162 104 59 239 192 145 141 41 253 304 16 11 11 17 20 8 70 60 132 262 230 245 248 199 213 178 188 140 97 53 58 99 265 189 204 339 176 215 268 259 254 247 261
230 223 167 160 209 169 214 349 25 212 307 249 299 176 208 239 246 170 148 166 189 290 252 296 224 206 159 239 148 148 107 296 314 54 249 186 209 247 252 241 221 247 248 258 257
327 218 209 195 149 143 43 62 226 166 228 0 168 147 205 155 254 172 115 244 239 188 287 243 293 167 171 196 199 213 191 192 204 248 271 113 245 263 225 243 243 278 284 301 288
311 205 166 178 165 109 147 217 230 185 209 247 337 291 223 194 195 193 205 215 225 190 204 195 268 129 212 179 151 190 190 236 345 45 14 261 269 285 248 283 301 290 295 273 251
315 227 210 166 154 131 199 232 227 216 358 32 249 213 225 182 281 179 231 203 232 198 177 254 283 256 72 31 288 190 180 73 219 198 246 274 265 269 297 277 310 358 331 309 301
272 258 166 143 130 192 225 225 229 199 185 201 228 260 244 229 225 224 211 286 236 197 170 168 157 283 103 191 208 186 246 231 198 181 252 258 266 217 219 30 320 309 316 320 303
245 234 146 153 176 215 231 222 211 197 209 241 247 247 258 268 253 229 211 225 196 174 232 207 157 227 266 284 264 214 260 239 235 237 215 228 266 287 272 281 290 281 289 322 272
246 221 196 232 221 220 223 245 226 242 225 204 234 230 227 251 269 240 254 265 268 245 237 181 249 274 260 282 235 214 222 235 259 278 238 240 256 256 269 271 269 271 267 241 240
295 248 188 224 241 242 238 238 238 223 245 231 253 254 263 262 259 268 270 243 247 251 251 255 245 240 250 245 251 224 224 231 235 248 255 239 251 261 270 270 272 272 277 248 263
257 246 282 215 229 244 250 267 266 263 247 257 261 252 257 265 275 266 278 310 290 278 262 229 251 239 248 253 254 256 260 257 252 255 251 256 257 256 261 271 285 293 290 278 263
257 279 342 311 302 251 226 238 249 261 260 257 271 272 287 281 298 293 276 237 264 316 337 324 280 274 260 250 239 238 248 256 262 260 259 261 266 267 274 280 279 278 281 292 329
279 309 272 270 310 94 240 251 265 20 354 327 338 352 260 292 321 294 265 251 246 264 285 266 284 293 279 310 308 277 258 251 254 261 261 263 271 4 352 332 312 329 36 9 356